{"data":{"norad_id":69711,"epoch":"2026-09-20T01:19:27.247008Z","epoch_age_seconds":60064,"freshness":"FRESH","line1":"1 69711U 26147H   26263.05517647  .00017268  00000+0  53606-3 0  9994","line2":"2 69711  97.2838 299.3897 0000624  87.5330 272.5984 15.33441679 14160","mean_motion":15.33441679,"eccentricity":6.24e-5,"inclination_deg":97.2838,"raan_deg":299.3897,"arg_perigee_deg":87.533,"mean_anomaly_deg":272.5984,"bstar":0.00053606,"rev_number":1416,"period_min":93.906408031055,"perigee_km":465.12600919598,"apogee_km":465.9801017149,"semimajor_km":6843.6900554554,"source":"CELESTRAK","updated_at":"2026-09-20T09:00:44.258759Z"}}